Vorticity
8 8 8 8 8 7 7 7 7 7 7 8 8 9 10 11 12 13 14 15 16 16 16 15 14 13 12 12 13 15 16 17 18 18 17 17 16 15 14 13 13 13 13 13 13 13 13 14 14 15 16 16 16 17 17 18 18 19 19 19 19 20 19 19 17 16 15 14 12
9 9 9 8 8 8 8 7 8 8 8 8 8 8 9 10 10 12 13 15 15 15 15 15 15 14 13 11 11 13 14 16 17 17 17 17 16 15 15 14 14 14 13 13 13 13 13 13 14 14 15 15 15 16 17 17 17 18 18 18 19 20 21 20 19 18 17 15 14
10 9 9 9 9 9 9 8 8 8 8 8 8 8 8 9 10 11 12 13 14 15 15 15 15 15 14 12 11 11 13 15 16 18 18 18 17 16 15 14 14 14 13 13 13 13 13 13 14 14 14 14 15 15 16 17 17 17 17 16 18 19 21 21 21 20 19 18 16
10 10 10 10 10 10 9 8 8 8 9 8 8 9 9 9 9 10 10 11 13 14 15 15 16 16 15 14 12 11 12 13 16 18 19 19 19 17 16 14 14 13 12 12 12 12 12 13 13 14 15 15 15 16 16 17 16 16 16 16 17 18 20 21 21 22 22 20 19
11 11 11 10 10 10 9 9 9 9 9 9 9 9 9 9 9 9 10 10 12 13 13 15 15 16 16 15 14 12 12 12 15 17 19 21 20 19 16 15 13 12 11 12 12 12 12 12 13 14 15 15 15 16 16 17 16 15 15 15 15 17 18 20 21 22 23 23 22
11 11 11 11 10 10 9 10 10 9 9 9 9 10 10 10 9 9 10 10 11 11 11 13 14 16 16 17 16 14 13 12 14 16 19 21 20 19 17 15 12 11 10 11 12 12 13 13 13 14 15 16 16 16 16 17 16 15 14 13 13 14 16 17 19 20 22 23 23
11 11 11 11 11 10 10 10 10 10 10 10 10 10 10 10 10 10 10 9 10 10 11 11 13 14 16 17 17 16 15 13 14 16 18 19 19 19 17 15 12 10 9 10 11 12 13 13 14 15 16 17 17 16 15 16 15 14 13 12 12 12 13 15 16 17 18 19 21
11 11 11 10 10 10 10 10 10 10 11 11 11 11 10 10 10 10 9 10 10 11 11 11 12 13 14 16 17 17 16 14 14 15 17 18 17 17 16 15 12 10 8 9 10 12 13 13 13 14 16 17 18 17 15 15 14 14 12 11 10 11 12 14 15 16 16 16 18
11 11 11 10 10 10 10 10 11 11 11 11 11 11 11 11 10 10 10 11 11 11 12 12 12 13 14 15 17 17 17 15 15 15 17 18 17 16 15 14 13 10 8 7 9 10 12 12 12 12 13 16 18 18 17 15 15 14 13 11 10 10 11 12 13 14 15 16 17
11 11 10 11 10 10 10 10 11 11 11 11 11 11 11 11 11 11 11 11 11 12 13 14 13 14 15 16 17 17 17 16 15 16 17 18 17 16 14 14 13 10 8 6 8 9 11 11 11 10 10 13 16 18 18 17 16 15 14 12 10 9 9 10 12 13 14 15 16
11 11 11 10 10 10 10 10 11 11 11 11 11 11 11 11 11 12 12 11 12 13 14 14 15 15 15 16 17 18 17 16 15 15 17 18 18 17 15 14 13 10 8 6 7 9 11 11 11 10 9 10 13 17 19 19 18 17 15 13 11 9 8 9 10 12 14 15 15
11 11 11 10 10 10 10 10 10 11 11 11 11 12 12 12 12 12 12 12 13 13 14 14 15 16 16 17 18 18 18 17 15 15 16 18 19 18 17 15 13 10 7 7 8 10 12 12 12 11 10 9 11 15 18 21 21 20 17 15 12 9 8 7 9 11 13 15 15
11 11 10 10 10 10 10 10 11 11 11 11 12 12 12 12 13 12 12 12 12 12 13 14 15 16 17 17 18 19 19 18 15 15 15 17 19 19 19 18 13 10 8 9 11 12 14 14 13 13 11 10 11 13 17 21 23 23 21 17 13 10 8 8 8 10 12 14 15
11 11 11 10 10 10 10 11 11 11 11 11 12 12 12 13 13 13 12 11 12 12 12 13 15 17 18 18 19 19 19 19 16 15 15 17 19 20 20 19 11 9 11 15 15 16 16 16 15 13 12 11 10 11 14 18 23 25 25 21 16 12 10 9 9 10 12 15 16
12 12 11 11 10 11 11 11 11 11 11 12 12 12 13 13 13 12 11 11 11 11 12 14 16 17 19 20 20 20 20 19 17 15 15 17 19 20 20 16 7 8 14 21 20 18 17 17 15 13 11 9 10 10 12 14 18 22 24 24 20 15 12 10 10 11 13 16 17
12 12 11 11 11 11 11 11 11 11 12 12 12 12 13 13 12 11 10 10 10 11 13 15 17 19 20 22 22 21 21 20 18 16 15 17 19 21 18 10 1 4 12 20 18 17 15 16 14 12 9 8 8 9 10 12 15 18 21 24 22 19 15 12 12 12 14 16 18
12 12 12 11 11 11 11 11 11 12 12 12 12 12 13 12 11 11 10 9 10 12 14 17 19 21 23 24 24 23 22 20 19 17 16 17 20 21 17 4 -5 -3 5 13 13 12 11 12 13 12 9 7 7 7 9 10 12 15 18 23 24 22 19 15 13 13 14 16 17
12 12 12 12 12 12 12 12 12 12 12 12 12 12 11 11 10 9 9 9 10 12 14 17 21 24 26 27 27 25 23 21 20 18 17 17 21 21 15 -0 -11 -10 -1 8 10 10 10 10 13 14 13 10 7 6 7 8 8 10 14 20 24 25 23 19 15 13 13 14 15
12 12 12 12 12 12 12 12 12 12 12 12 11 10 10 9 8 8 8 9 10 11 13 16 20 24 28 30 29 28 25 22 21 19 18 17 21 21 14 -2 -15 -14 -5 8 13 14 13 10 10 11 12 13 10 8 6 6 5 6 8 14 21 25 26 23 19 15 12 11 12
12 12 12 12 12 12 12 12 13 13 12 12 10 9 8 7 7 7 8 9 9 10 11 13 18 23 28 33 32 30 27 24 22 20 18 17 21 21 15 -1 -16 -18 -9 8 16 17 15 12 10 8 9 14 14 12 9 6 4 3 3 7 15 22 26 26 23 18 14 11 11
13 13 13 12 12 13 13 13 13 13 13 12 10 7 5 4 5 6 7 8 8 8 8 10 13 20 27 33 34 33 30 26 23 21 19 17 20 21 17 3 -14 -19 -12 6 17 19 15 10 9 7 8 13 15 15 13 9 6 3 1 2 8 16 23 27 26 23 18 14 12
13 13 13 13 13 13 13 13 13 13 14 13 10 7 3 2 3 4 5 5 5 6 6 6 9 15 22 31 35 34 31 28 24 22 20 18 19 21 19 7 -9 -17 -14 3 18 20 14 10 7 6 7 12 14 15 14 12 9 6 3 -0 3 9 17 24 26 25 22 17 14
13 13 13 13 13 13 13 13 13 14 15 15 12 8 4 1 0 0 1 2 3 4 4 4 5 9 16 26 33 35 34 30 26 23 21 19 18 19 19 13 -1 -12 -13 2 17 19 14 10 6 4 5 12 14 15 16 15 13 11 7 2 1 4 10 18 23 26 25 22 17
14 13 13 13 13 13 13 13 13 14 15 16 14 11 6 1 -1 -2 -2 -1 -0 1 2 3 2 4 9 17 28 35 36 33 28 25 23 20 18 18 18 18 7 -6 -10 4 15 17 14 7 9 8 8 11 13 15 17 18 17 15 12 7 2 2 5 12 18 22 25 26 23
14 14 14 14 14 14 14 14 14 15 16 17 16 14 10 5 1 -1 -3 -3 -2 -1 1 2 1 1 3 9 20 31 37 37 32 28 25 22 19 17 18 22 13 -1 -6 10 16 14 9 2 6 10 13 14 15 17 18 20 21 20 17 12 6 3 2 8 13 17 21 23 26
14 14 14 14 14 14 14 14 14 14 15 16 17 17 15 11 7 3 0 -1 -2 -2 -1 1 1 1 1 3 11 22 33 40 36 31 27 24 21 19 20 26 13 2 0 13 17 13 6 -1 4 10 14 17 18 19 20 22 23 24 22 18 11 5 2 4 11 14 16 18 23
14 14 14 13 13 13 13 13 13 13 14 15 16 17 17 16 13 10 7 4 2 -0 -1 -0 1 2 2 1 5 14 25 37 39 36 31 25 22 21 23 29 5 0 6 13 13 12 7 -2 5 11 15 18 19 19 20 22 25 26 26 23 17 10 5 2 8 13 15 15 18
14 14 13 13 13 12 12 11 12 12 12 12 13 15 16 17 17 15 13 11 8 5 2 1 2 3 3 3 4 9 16 28 37 39 35 27 22 22 25 27 -1 -2 8 12 10 11 9 -6 9 15 17 18 17 17 18 20 23 26 28 28 24 18 11 5 7 12 15 15 15
13 13 12 12 12 11 11 10 10 10 10 10 10 11 13 14 15 16 16 15 14 12 9 5 3 3 4 5 5 6 10 20 32 38 38 30 23 23 24 21 -5 -3 9 14 -0 1 3 -7 5 13 16 16 16 15 14 15 18 22 25 29 29 26 21 14 10 11 15 18 15
12 12 12 12 11 10 10 10 10 9 9 9 9 9 10 11 12 13 15 15 16 16 14 10 6 4 5 6 5 5 8 13 25 35 39 34 26 25 24 14 -9 -5 10 21 7 1 -1 -5 6 14 18 18 17 14 12 10 12 15 19 25 29 30 28 23 16 13 14 19 17
12 12 12 11 11 11 11 10 10 10 9 9 9 9 9 10 10 11 12 13 14 15 15 14 10 6 4 5 5 6 7 9 19 30 37 37 29 28 24 10 -13 -11 4 19 12 4 -4 -8 4 14 20 21 19 16 13 9 9 10 13 18 26 30 31 28 21 17 15 18 19
12 12 12 12 12 11 11 11 11 11 11 11 11 11 10 10 10 10 10 11 12 13 15 16 14 10 6 5 5 6 7 8 15 25 34 38 33 31 25 9 -16 -17 -5 8 11 1 -6 7 14 18 20 21 21 19 16 12 9 7 9 16 24 29 31 31 25 19 16 16 19
12 12 12 12 12 11 11 11 11 11 11 11 11 11 11 11 11 10 10 10 11 12 14 15 16 13 10 6 6 6 6 7 13 21 30 38 35 33 26 9 -17 -21 -10 7 12 -4 -12 14 23 25 23 22 22 21 19 16 12 10 11 19 23 26 29 32 27 21 17 15 17
11 11 11 11 11 11 10 10 10 10 10 11 11 11 11 11 11 11 11 11 11 11 12 14 15 14 12 8 7 7 6 6 11 18 27 36 37 36 28 11 -16 -22 -13 4 9 -4 -8 19 26 27 24 24 23 22 20 19 16 15 16 23 20 20 23 28 25 23 20 17 18
9 10 10 10 10 10 10 10 10 10 10 10 10 10 10 10 11 11 11 11 11 11 12 13 14 14 13 10 9 7 7 5 8 14 24 34 38 38 31 15 -14 -23 -16 4 -0 -5 -1 23 27 26 24 25 23 21 20 19 18 19 21 23 14 10 11 19 21 22 22 21 21
8 9 9 10 10 10 10 10 10 11 11 11 11 10 10 10 10 10 11 11 11 12 12 13 13 14 14 12 10 9 8 7 6 11 19 31 39 40 34 21 -8 -25 -25 -2 -3 -4 2 23 25 25 23 23 22 20 19 19 19 21 23 21 8 -0 -1 8 15 21 24 25 25
9 9 10 10 11 11 12 12 12 12 12 13 13 12 12 11 11 10 10 11 11 12 12 13 14 14 14 14 11 10 9 8 6 7 14 26 39 42 38 27 1 -22 -32 -16 -11 -8 -1 20 22 21 20 20 20 19 18 18 20 22 23 20 5 -3 -5 1 6 12 19 24 26
10 11 11 12 12 13 14 14 14 14 14 14 14 14 14 13 13 12 12 12 12 12 12 13 14 15 15 15 13 11 9 9 7 6 9 20 36 43 42 32 13 -12 -30 -25 -14 -12 -6 14 21 20 17 18 18 16 15 15 18 22 23 20 5 -3 -5 -0 2 4 9 15 21
12 13 13 14 14 15 15 16 16 16 16 16 16 16 16 16 15 14 14 13 13 13 13 13 14 15 15 16 14 12 10 9 8 6 7 13 30 42 45 36 24 1 -20 -30 -18 -15 -9 9 20 22 19 18 17 15 14 13 15 18 21 21 9 -0 -5 -2 -0 2 5 9 15
14 14 15 15 16 16 16 17 18 19 19 18 18 17 17 17 17 16 15 15 15 14 13 13 14 15 16 16 15 14 12 10 9 7 6 9 22 36 44 40 31 15 -7 -32 -26 -21 -13 3 15 21 21 18 16 15 14 12 13 15 17 19 16 8 1 -0 1 3 5 8 14
15 15 15 16 16 16 17 17 18 19 20 21 20 19 19 19 18 18 17 17 16 15 15 14 14 15 16 17 17 15 13 12 10 8 7 8 17 28 38 42 36 25 8 -19 -26 -25 -18 -5 1 10 17 18 15 15 15 13 13 13 14 15 16 13 9 5 5 5 7 11 18
Height
3019 3017 3014 3012 3010 3008 3006 3003 3001 2999 2997 2995 2992 2991 2989 2987 2985 2983 2982 2980 2978 2976 2974 2973 2971 2970 2968 2967 2965 2964 2963 2962 2962 2961 2959 2958 2957 2957 2956 2955 2954 2953 2952 2952 2951 2950 2949 2948 2948 2947 2947 2947 2947 2947 2947 2947 2947 2947 2947 2947 2947 2947 2947 2948 2948 2949 2949 2950 2951
3018 3016 3013 3011 3008 3006 3004 3002 3000 2998 2996 2993 2991 2989 2987 2985 2983 2982 2980 2978 2976 2974 2973 2971 2970 2968 2966 2965 2963 2962 2961 2960 2959 2958 2957 2956 2955 2954 2953 2952 2952 2951 2950 2949 2948 2947 2947 2946 2946 2945 2945 2944 2944 2944 2944 2944 2944 2944 2944 2944 2944 2944 2945 2945 2945 2946 2947 2947 2947
3017 3014 3012 3010 3007 3005 3003 3001 2998 2996 2994 2992 2990 2987 2985 2983 2982 2980 2978 2977 2975 2973 2971 2970 2968 2966 2965 2963 2961 2960 2958 2957 2956 2955 2954 2953 2952 2952 2951 2950 2949 2948 2947 2947 2946 2945 2944 2944 2943 2943 2942 2942 2942 2942 2941 2941 2941 2941 2941 2942 2942 2942 2942 2942 2942 2943 2944 2944 2945
3015 3013 3011 3008 3006 3004 3001 2999 2997 2995 2993 2991 2988 2986 2984 2982 2980 2978 2977 2975 2973 2972 2970 2968 2966 2965 2963 2962 2960 2958 2957 2955 2954 2953 2952 2951 2950 2949 2948 2947 2947 2946 2945 2944 2943 2943 2942 2942 2941 2940 2940 2939 2939 2939 2939 2939 2939 2938 2938 2939 2939 2939 2940 2940 2940 2940 2941 2941 2942
3014 3012 3009 3007 3004 3002 3000 2997 2995 2993 2991 2989 2987 2985 2982 2980 2978 2977 2975 2973 2972 2970 2968 2966 2965 2963 2962 2960 2958 2957 2955 2954 2952 2951 2949 2948 2947 2947 2946 2945 2944 2943 2942 2942 2941 2941 2940 2940 2939 2938 2938 2937 2937 2937 2936 2936 2936 2936 2936 2936 2936 2937 2937 2937 2937 2937 2938 2938 2938
3012 3010 3008 3006 3003 3001 2998 2996 2994 2992 2989 2987 2985 2983 2981 2979 2977 2975 2973 2971 2969 2968 2966 2964 2963 2961 2960 2958 2957 2956 2954 2952 2950 2949 2947 2946 2945 2944 2944 2943 2942 2941 2941 2940 2939 2939 2938 2937 2937 2936 2936 2935 2935 2934 2934 2933 2933 2933 2933 2933 2933 2933 2934 2934 2935 2935 2935 2935 2936
3011 3009 3006 3004 3002 2999 2997 2995 2992 2990 2988 2986 2983 2982 2979 2977 2975 2973 2971 2969 2967 2966 2964 2962 2961 2959 2958 2957 2955 2954 2952 2951 2949 2947 2945 2944 2943 2942 2941 2941 2940 2939 2938 2937 2937 2937 2936 2936 2935 2934 2933 2933 2932 2932 2932 2931 2931 2931 2931 2931 2931 2931 2931 2931 2932 2932 2932 2932 2933
3009 3007 3005 3002 3000 2998 2996 2993 2991 2989 2986 2984 2982 2980 2978 2976 2973 2972 2969 2967 2966 2964 2962 2960 2959 2957 2956 2954 2953 2952 2951 2949 2947 2946 2944 2942 2941 2940 2939 2939 2938 2937 2937 2936 2935 2935 2934 2933 2933 2932 2931 2931 2930 2930 2929 2929 2929 2928 2928 2928 2928 2928 2928 2928 2928 2929 2929 2930 2930
3008 3006 3003 3001 2999 2997 2994 2992 2989 2987 2985 2982 2980 2978 2976 2974 2972 2970 2967 2966 2964 2962 2960 2958 2956 2955 2953 2952 2951 2950 2948 2947 2946 2944 2943 2941 2940 2938 2937 2937 2936 2936 2935 2934 2933 2932 2932 2931 2931 2930 2929 2928 2928 2927 2927 2927 2927 2926 2926 2926 2926 2926 2926 2926 2926 2926 2926 2926 2927
3006 3004 3002 2999 2997 2995 2992 2990 2988 2986 2983 2981 2979 2977 2974 2972 2970 2968 2966 2964 2962 2960 2958 2956 2954 2952 2951 2950 2948 2947 2946 2945 2944 2942 2941 2940 2938 2937 2936 2935 2934 2934 2933 2932 2931 2930 2930 2929 2928 2928 2927 2927 2926 2925 2925 2925 2924 2924 2924 2924 2924 2924 2924 2924 2924 2923 2923 2924 2924
3005 3002 3000 2998 2995 2993 2991 2988 2986 2984 2982 2979 2977 2975 2973 2971 2968 2966 2964 2962 2960 2958 2956 2954 2952 2950 2948 2947 2946 2945 2944 2943 2942 2941 2939 2938 2937 2935 2934 2933 2933 2932 2932 2930 2929 2928 2927 2927 2926 2926 2925 2925 2924 2923 2923 2922 2922 2922 2922 2922 2922 2922 2922 2922 2922 2921 2921 2921 2921
3003 3001 2998 2996 2993 2991 2989 2987 2984 2982 2980 2977 2975 2973 2971 2969 2967 2964 2962 2960 2958 2956 2954 2952 2950 2948 2946 2945 2943 2942 2942 2941 2939 2938 2937 2936 2935 2934 2932 2932 2932 2931 2930 2929 2927 2926 2925 2924 2924 2923 2923 2923 2922 2922 2921 2920 2920 2920 2919 2919 2919 2919 2919 2919 2919 2919 2919 2919 2919
3002 2999 2997 2994 2992 2989 2987 2985 2982 2980 2978 2976 2973 2971 2969 2967 2965 2962 2960 2958 2956 2954 2952 2950 2948 2946 2944 2942 2941 2940 2939 2938 2937 2936 2935 2934 2933 2932 2931 2931 2930 2930 2929 2927 2926 2924 2923 2922 2921 2921 2922 2921 2921 2920 2919 2918 2918 2917 2917 2917 2917 2917 2917 2917 2917 2917 2917 2917 2917
3000 2997 2995 2992 2990 2987 2985 2983 2981 2978 2976 2974 2972 2969 2967 2965 2963 2961 2958 2956 2954 2952 2950 2948 2946 2944 2942 2940 2938 2937 2937 2936 2935 2934 2933 2932 2932 2931 2930 2929 2929 2929 2927 2926 2924 2923 2921 2920 2919 2919 2920 2919 2919 2918 2917 2917 2916 2915 2915 2915 2915 2915 2915 2915 2915 2915 2915 2915 2915
2998 2996 2993 2991 2988 2986 2983 2981 2979 2977 2974 2972 2970 2967 2965 2963 2961 2959 2957 2955 2952 2950 2948 2946 2944 2942 2940 2938 2936 2935 2934 2933 2932 2932 2932 2931 2930 2929 2928 2928 2928 2927 2926 2924 2922 2921 2920 2918 2918 2918 2918 2917 2917 2916 2916 2915 2914 2913 2913 2913 2912 2912 2912 2912 2912 2912 2912 2912 2912
2997 2994 2992 2989 2986 2984 2982 2979 2977 2975 2972 2970 2968 2966 2964 2962 2959 2957 2955 2953 2951 2949 2946 2944 2942 2939 2937 2936 2934 2933 2932 2931 2930 2930 2930 2929 2928 2928 2927 2927 2927 2926 2925 2923 2921 2920 2918 2917 2916 2916 2916 2916 2915 2914 2914 2913 2912 2912 2911 2911 2911 2911 2911 2911 2911 2910 2910 2910 2910
2995 2992 2990 2987 2985 2982 2980 2978 2976 2973 2971 2969 2967 2965 2962 2960 2958 2956 2954 2952 2949 2947 2945 2942 2940 2937 2935 2933 2932 2931 2929 2929 2928 2928 2927 2927 2927 2926 2926 2926 2925 2924 2923 2922 2920 2918 2917 2916 2915 2914 2914 2914 2913 2912 2912 2912 2911 2910 2910 2909 2909 2909 2908 2908 2908 2908 2908 2908 2908
2993 2991 2988 2986 2984 2981 2979 2977 2974 2972 2970 2968 2966 2963 2961 2959 2957 2955 2952 2950 2948 2946 2943 2941 2938 2936 2933 2932 2930 2928 2927 2927 2926 2926 2926 2925 2925 2925 2924 2924 2923 2922 2922 2920 2918 2917 2916 2915 2913 2913 2913 2912 2911 2911 2911 2910 2910 2909 2908 2908 2907 2907 2907 2907 2907 2907 2907 2907 2907
2992 2990 2987 2985 2982 2980 2977 2975 2973 2971 2969 2967 2965 2962 2960 2958 2956 2953 2951 2949 2947 2944 2942 2939 2937 2934 2932 2930 2928 2926 2925 2924 2924 2924 2923 2923 2923 2923 2922 2922 2922 2921 2920 2919 2917 2916 2915 2913 2912 2912 2912 2911 2910 2909 2909 2909 2908 2908 2907 2907 2906 2905 2905 2905 2905 2905 2905 2905 2905
2991 2988 2986 2983 2981 2979 2976 2974 2972 2970 2967 2966 2963 2962 2959 2957 2955 2952 2950 2948 2945 2943 2941 2938 2936 2933 2930 2928 2926 2924 2923 2922 2922 2921 2921 2921 2921 2921 2921 2920 2920 2919 2919 2918 2916 2915 2914 2913 2911 2911 2911 2910 2908 2907 2907 2907 2907 2907 2906 2905 2905 2904 2903 2903 2903 2903 2903 2903 2904
2989 2987 2984 2982 2980 2977 2975 2973 2970 2968 2966 2964 2962 2960 2958 2956 2953 2951 2949 2947 2944 2942 2940 2937 2934 2932 2929 2927 2925 2923 2922 2920 2920 2919 2919 2919 2919 2919 2919 2919 2918 2918 2918 2917 2915 2914 2913 2912 2911 2910 2910 2908 2907 2906 2906 2905 2905 2905 2905 2904 2903 2903 2902 2902 2902 2902 2902 2902 2902
2988 2985 2983 2981 2978 2976 2974 2972 2969 2967 2965 2963 2961 2959 2957 2955 2952 2950 2948 2946 2943 2941 2939 2936 2934 2931 2928 2925 2923 2921 2920 2919 2918 2917 2917 2917 2917 2917 2917 2917 2917 2917 2917 2915 2914 2912 2912 2911 2910 2910 2909 2907 2905 2904 2904 2904 2904 2903 2903 2903 2902 2902 2901 2901 2901 2900 2900 2901 2901
2987 2984 2982 2980 2977 2975 2972 2970 2968 2966 2964 2962 2960 2958 2956 2954 2952 2949 2947 2945 2942 2940 2938 2935 2933 2930 2927 2925 2922 2920 2918 2917 2916 2916 2915 2915 2915 2915 2915 2916 2916 2916 2915 2914 2912 2911 2910 2910 2910 2909 2907 2905 2904 2903 2902 2902 2902 2902 2902 2902 2901 2901 2900 2900 2899 2899 2899 2899 2899
2985 2983 2981 2978 2976 2974 2972 2969 2967 2965 2963 2961 2959 2957 2955 2953 2951 2948 2946 2944 2942 2939 2937 2935 2932 2930 2927 2924 2922 2919 2917 2916 2915 2914 2914 2914 2914 2914 2914 2914 2915 2915 2914 2912 2911 2910 2910 2911 2911 2908 2906 2904 2903 2902 2902 2901 2901 2901 2900 2900 2900 2899 2899 2898 2898 2898 2898 2898 2898
2984 2982 2980 2977 2975 2973 2971 2968 2966 2964 2962 2960 2957 2956 2953 2952 2949 2947 2945 2943 2941 2938 2936 2934 2932 2929 2927 2924 2922 2919 2917 2915 2914 2913 2912 2912 2912 2912 2913 2913 2913 2913 2912 2911 2910 2909 2910 2911 2911 2907 2904 2903 2902 2901 2900 2900 2899 2899 2899 2898 2898 2898 2897 2897 2897 2897 2897 2896 2897
2983 2981 2979 2976 2974 2972 2969 2967 2965 2963 2961 2958 2956 2954 2952 2950 2948 2946 2944 2942 2940 2938 2935 2933 2931 2929 2926 2924 2921 2919 2917 2914 2913 2912 2911 2911 2911 2912 2912 2912 2912 2912 2911 2910 2909 2908 2908 2909 2909 2906 2903 2902 2901 2900 2899 2899 2898 2897 2897 2897 2897 2896 2896 2896 2896 2895 2895 2895 2895
2982 2980 2978 2975 2973 2971 2968 2966 2964 2962 2960 2957 2955 2953 2951 2949 2947 2945 2942 2941 2939 2937 2935 2932 2930 2928 2926 2923 2921 2918 2916 2914 2912 2911 2910 2910 2910 2910 2911 2911 2912 2911 2910 2909 2908 2907 2906 2906 2906 2904 2902 2901 2900 2899 2899 2898 2897 2896 2896 2895 2895 2895 2894 2894 2894 2894 2894 2894 2894
2982 2979 2977 2974 2972 2970 2967 2965 2963 2961 2959 2957 2954 2952 2950 2947 2945 2943 2941 2939 2937 2936 2934 2932 2929 2927 2925 2922 2920 2918 2916 2913 2912 2910 2910 2909 2909 2909 2909 2910 2911 2910 2909 2908 2907 2905 2904 2904 2903 2902 2901 2900 2899 2899 2898 2897 2896 2895 2894 2894 2893 2893 2893 2893 2893 2893 2893 2893 2892
2980 2978 2976 2973 2971 2969 2967 2964 2962 2960 2957 2955 2953 2951 2948 2946 2944 2942 2940 2938 2936 2934 2932 2930 2928 2926 2924 2922 2920 2917 2915 2913 2911 2910 2909 2908 2908 2908 2908 2909 2910 2909 2908 2907 2906 2904 2902 2902 2902 2901 2900 2899 2899 2898 2897 2897 2896 2894 2893 2893 2892 2892 2891 2891 2891 2892 2892 2892 2892
2979 2977 2975 2972 2970 2968 2965 2963 2961 2958 2956 2954 2952 2950 2947 2945 2943 2941 2938 2937 2934 2932 2931 2929 2927 2925 2923 2921 2919 2917 2915 2913 2911 2909 2908 2907 2907 2907 2907 2908 2908 2908 2907 2906 2905 2902 2901 2901 2900 2899 2898 2898 2898 2897 2897 2896 2895 2894 2893 2892 2891 2890 2890 2889 2890 2890 2890 2890 2890
2978 2976 2973 2971 2969 2967 2964 2962 2959 2957 2955 2953 2951 2948 2946 2944 2942 2939 2937 2935 2933 2931 2930 2928 2926 2924 2922 2920 2918 2917 2914 2912 2910 2909 2907 2907 2906 2906 2906 2907 2907 2907 2906 2905 2904 2902 2901 2901 2899 2898 2897 2897 2897 2896 2896 2895 2894 2893 2892 2892 2890 2889 2888 2888 2888 2888 2888 2889 2889
2977 2975 2972 2970 2967 2965 2963 2961 2958 2956 2954 2952 2949 2947 2945 2942 2940 2938 2936 2934 2932 2930 2928 2927 2925 2923 2922 2920 2918 2916 2914 2912 2910 2908 2907 2906 2905 2905 2905 2905 2906 2906 2905 2904 2903 2902 2902 2901 2898 2897 2896 2896 2896 2895 2895 2894 2894 2893 2892 2891 2890 2889 2887 2886 2886 2887 2887 2887 2888
2976 2974 2971 2969 2966 2964 2962 2959 2957 2955 2952 2950 2947 2945 2943 2941 2939 2937 2935 2933 2931 2929 2927 2925 2923 2922 2920 2918 2917 2915 2913 2912 2910 2908 2906 2905 2904 2904 2904 2904 2904 2905 2904 2903 2902 2902 2902 2901 2897 2896 2895 2895 2894 2894 2894 2893 2893 2893 2892 2891 2890 2888 2886 2885 2885 2885 2886 2886 2887
2974 2972 2970 2967 2965 2962 2960 2958 2955 2953 2951 2948 2946 2944 2942 2940 2937 2936 2934 2932 2930 2928 2926 2924 2922 2920 2919 2917 2916 2914 2912 2911 2909 2907 2906 2904 2904 2903 2903 2903 2903 2904 2903 2903 2902 2902 2902 2902 2897 2894 2894 2894 2893 2893 2893 2893 2893 2892 2892 2892 2890 2888 2886 2884 2884 2884 2885 2885 2886
2973 2970 2968 2965 2963 2961 2958 2956 2953 2951 2949 2947 2944 2942 2940 2938 2936 2934 2932 2930 2928 2927 2924 2922 2921 2919 2918 2916 2915 2913 2911 2910 2908 2907 2905 2904 2903 2902 2902 2902 2902 2903 2903 2902 2901 2900 2901 2902 2896 2893 2893 2893 2893 2892 2892 2892 2892 2892 2892 2891 2890 2888 2885 2884 2884 2884 2884 2884 2885
2971 2968 2966 2963 2961 2958 2956 2953 2951 2949 2947 2945 2942 2940 2938 2936 2934 2932 2931 2929 2927 2925 2923 2921 2919 2918 2916 2915 2913 2912 2910 2909 2907 2906 2905 2903 2902 2902 2901 2902 2902 2902 2902 2901 2900 2899 2899 2901 2896 2893 2892 2892 2892 2892 2891 2891 2891 2891 2891 2891 2889 2887 2885 2883 2884 2884 2884 2884 2884
2969 2967 2964 2961 2959 2956 2954 2951 2949 2947 2944 2942 2940 2938 2936 2934 2932 2930 2928 2927 2925 2923 2922 2920 2918 2916 2915 2913 2912 2911 2909 2908 2907 2905 2904 2903 2902 2901 2900 2900 2900 2900 2900 2899 2899 2898 2898 2899 2896 2893 2892 2892 2892 2891 2891 2890 2890 2890 2891 2890 2889 2887 2885 2884 2884 2884 2883 2883 2882
2968 2965 2962 2960 2957 2954 2952 2949 2947 2944 2942 2940 2937 2936 2933 2932 2930 2928 2926 2924 2923 2921 2920 2918 2916 2915 2913 2912 2911 2909 2908 2907 2905 2904 2903 2902 2901 2900 2899 2899 2899 2899 2899 2898 2898 2897 2897 2898 2895 2893 2892 2891 2891 2891 2890 2890 2890 2890 2890 2890 2889 2887 2886 2885 2885 2884 2883 2882 2882
2967 2964 2961 2958 2955 2952 2950 2947 2945 2942 2939 2937 2935 2933 2931 2929 2927 2926 2924 2922 2921 2919 2917 2916 2914 2913 2912 2910 2909 2908 2907 2905 2904 2903 2902 2901 2900 2900 2899 2898 2898 2898 2898 2898 2897 2897 2897 2897 2894 2892 2892 2891 2890 2890 2890 2890 2889 2889 2889 2889 2888 2887 2887 2886 2885 2884 2884 2883 2882
2966 2963 2960 2957 2954 2951 2948 2946 2943 2941 2938 2935 2932 2930 2928 2926 2925 2923 2922 2920 2918 2917 2916 2914 2913 2911 2910 2909 2907 2906 2905 2904 2903 2902 2901 2900 2899 2899 2898 2897 2897 2897 2897 2897 2896 2896 2896 2895 2894 2892 2892 2891 2890 2890 2890 2889 2889 2889 2888 2888 2888 2887 2886 2886 2885 2885 2884 2883 2882
2965 2962 2959 2956 2953 2950 2947 2944 2942 2939 2936 2933 2931 2928 2926 2924 2922 2921 2919 2918 2917 2915 2914 2912 2911 2910 2908 2907 2906 2905 2904 2903 2902 2901 2900 2899 2898 2897 2897 2897 2896 2896 2896 2896 2895 2895 2895 2895 2894 2892 2891 2891 2890 2890 2889 2889 2889 2888 2888 2888 2888 2887 2887 2886 2886 2885 2885 2884 2884